Location: Haskovo
(41.9227°N, 25.5707°E)
Time: 21:31:44
(UTC+03:00)

ISS - Pass Details

Date: 20 May 2025
Orbit: 415 x 417 km, 51.6° (Epoch: 16 June)

Event Time Altitude Azimuth Distance (km) Brightness Sun altitude
Rises 22:30:06 0° 308° (NW) 2,361 1.7 -17.2°
Reaches altitude 10° 22:32:26 10° 322° (NW) 1,495 0.4 -17.5°
Maximum altitude 22:35:18 26° 21° (NNE) 867 -1.9 -17.9°
Enters shadow 22:36:58 18° 64° (ENE) 1,117 -1.8 -18.1°
